[[{"header":{"parameterUnit":"m.s-1","parameterCategory":2,"la1":30.2991,"la2":30.254,"lo1":-89.0895,"lo2":-89.0444,"dy":0.0017,"dx":0.0017,"nx":28,"ny":28,"refTime":"2023-09-24T03:00:00:Z","depth":"0","parameterNumber":2,"parameterNumberName":"U-component_of_CURRENTS"},"data":[0,0,0,0,0,0,0,0,0,0,0,0,0,0,0,0,0,0,0,0,0,0,0,0,0,0,0,0,0,0,0,0,0,0,0,0,0,0,0,0,0,0,0,0,0,0,0,0,0,0,0,0,0,0,0,0,0,0,0.3982,0.3983,0,0.4019,0.4019,0.4019,0.4032,0.4032,0.4032,0.4033,0.4044,0.4044,0.4044,0,0,0,0,0,0,0,0,0,0,0,0,0,0.3922,0.3922,0.3982,0.3983,0.3984,0.402,0.4019,0.4019,0.4032,0.4032,0.4033,0.4033,0.4044,0.4044,0.4044,0,0,0,0,0,0,0,0,0,0,0,0,0,0.3946,0.3922,0.3982,0.3999,0.4001,0.402,0.4019,0.4019,0.4031,0.4032,0.4033,0.4033,0.4044,0.4044,0.4044,0.4031,0,0,0.4044,0.4044,0,0,0,0,0,0,0,0,0.3945,0.3948,0.3995,0.3998,0.4001,0.4027,0.4003,0.4024,0.4031,0.4013,0.4033,0.4034,0.404,0.404,0.4037,0.4032,0.4032,0.4044,0.4044,0.4044,0.4044,0,0,0,0,0,0,0,0.3943,0.3946,0.399,0.3997,0.4,0.4006,0.4009,0.4006,0.4017,0.4015,0.4018,0.4031,0.404,0.4037,0.4038,0.4033,0.4044,0.4044,0.4044,0.4044,0.407,0.4071,0,0,0,0,0,0,0.395,0.3945,0.3989,0.3992,0.3981,0.4007,0.401,0.4013,0.4018,0.4022,0.4031,0.4032,0.4037,0.4038,0.4038,0.4063,0.4044,0.4044,0.4044,0.4069,0.407,0.4071,0,0,0,0,0,0,0.3949,0.3953,0.3988,0.3975,0.3981,0.4008,0.401,0.4013,0.4016,0.4032,0.4033,0.4031,0.4038,0.4038,0.4045,0.4063,0.4044,0.4044,0.4068,0.4069,0.4071,0.4088,0,0,0,0,0,0,0.3946,0.3952,0.3946,0.3975,0.3982,0.3999,0.401,0.4014,0.4026,0.4028,0.4032,0.4034,0.4038,0.4045,0.4045,0.4062,0.4043,0.4067,0.4069,0.407,0.4087,0.409,0.4092,0,0,0,0,0,0.3944,0.3937,0.3945,0.3951,0.3976,0.4,0.4003,0.402,0.4026,0.4024,0.4034,0.4034,0.4055,0.4045,0.4045,0.4062,0.4067,0.4068,0.407,0.4085,0.4089,0.4092,0,0,0,0,0,0,0.3894,0.394,0.3949,0.3952,0.3976,0.4005,0.4009,0.4019,0.4024,0.4031,0.4035,0.4037,0.4058,0.4052,0.4042,0.4076,0.4064,0.4066,0.4076,0.408,0.4082,0.4085,0.4043,0,0,0,0,0,0.3885,0.3901,0.3936,0.3939,0.3954,0.3979,0.3989,0.4008,0.4024,0.4027,0.4033,0.4045,0.4063,0.4064,0.4078,0.4081,0.4118,0.4096,0.4099,0.4101,0.4104,0.4148,0.4155,0.4077,0.4077,0.4077,0,0,0.3871,0.3895,0.3905,0.3932,0.3953,0.3981,0.3985,0.4011,0.4033,0.4027,0.4047,0.4057,0.4069,0.4088,0.4096,0.4083,0.4156,0.4103,0.4105,0.4106,0.4151,0.4158,0.4165,0.4078,0.4078,0.4077,0,0,0.3874,0.387,0.39,0.3918,0.3961,0.3978,0.3987,0.402,0.403,0.4049,0.4065,0.408,0.4091,0.4108,0.4117,0.414,0.4176,0.4148,0.4153,0.4197,0.4204,0.421,0.4322,0.4338,0.414,0.414,0.414,0,0.3867,0.3892,0.3908,0.3939,0.3956,0.3979,0.401,0.4024,0.4054,0.4062,0.4061,0.4097,0.4104,0.4135,0.4148,0.4147,0.4199,0.4138,0.4201,0.4207,0.4214,0.4326,0.4343,0.4141,0.4141,0.414,0.414,0,0.3901,0.3915,0.3929,0.398,0.3992,0.402,0.405,0.4064,0.4077,0.409,0.4119,0.4129,0.415,0.4157,0.4158,0.4205,0.4243,0.4208,0.4191,0.4223,0.434,0.4358,0.4142,0.4142,0.4142,0.4141,0,0,0.3919,0.3955,0.3963,0.3977,0.4016,0.4032,0.4064,0.4096,0.4122,0.4133,0.4162,0.4181,0.4183,0.4194,0.4201,0.4227,0.4332,0.4234,0.4235,0.4346,0.449,0.4444,0.446,0.4305,0.4306,0.4308,0.4575,0,0.3953,0.4006,0.4016,0.405,0.4071,0.4084,0.4107,0.4131,0.4153,0.4184,0.419,0.4226,0.4199,0.4223,0.4242,0.4315,0.4371,0.4267,0.4442,0.4449,0.4402,0.4474,0.421,0.4417,0.4592,0.4595,0.4598,0,0.3988,0.4016,0.4061,0.4075,0.4087,0.4107,0.4142,0.417,0.4209,0.4226,0.4247,0.4267,0.4326,0.4288,0.4423,0.4361,0.4431,0.4477,0.4487,0.4442,0.4432,0.4403,0.4443,0.4345,0.4625,0.4623,0.4621,0,0.3988,0.4036,0.4067,0.4076,0.411,0.4124,0.4142,0.4177,0.4207,0.4264,0.4308,0.435,0.4415,0.447,0.4576,0.4511,0.4744,0.4665,0.47,0.4702,0.4509,0.4488,0.4463,0.4762,0.4762,0.4761,0.476,0,0.4008,0.4028,0.4067,0.4082,0.4109,0.4125,0.4159,0.4189,0.4242,0.4284,0.4331,0.4399,0.446,0.4589,0.464,0.4759,0.4809,0.4733,0.4757,0.4514,0.4492,0.4421,0.4378,0.4771,0.4769,0.4767,0.4765,0,0.3999,0.4032,0.4057,0.4097,0.4107,0.4123,0.4162,0.4184,0.4258,0.4327,0.4358,0.4484,0.4644,0.4747,0.4895,0.4868,0.4829,0.5,0.4751,0.4736,0.4578,0.4546,0.4416,0.4297,0.5047,0.5047,0.5047,0,0.4005,0.4021,0.406,0.4062,0.4079,0.4103,0.4113,0.4176,0.4209,0.4375,0.4412,0.4607,0.4696,0.4935,0.492,0.5029,0.4899,0.4868,0.4647,0.4559,0.4543,0.4362,0.4257,0.4446,0.4441,0.4438,0.4434,0,0.4004,0.4017,0.4032,0.4033,0.4043,0.4056,0.4084,0.4115,0.4203,0.4274,0.4403,0.4501,0.471,0.4667,0.4817,0.4836,0.4585,0.4789,0.4729,0.4099,0.3866,0.3766,0.4357,0.44,0.4403,0.4406,0.4408,0.4409,0.399,0.399,0.3993,0.3984,0.3983,0.3973,0.3941,0.3985,0.402,0.4068,0.4275,0.4319,0.4407,0.4525,0.4536,0.4375,0.4378,0.4212,0.4209,0.4058,0.381,0.4368,0.4399,0.4402,0.4405,0.4408,0.441,0,0.395,0.3945,0.3935,0.3897,0.3843,0.3882,0.388,0.3815,0.3787,0.3884,0.3948,0.3964,0.3944,0.4009,0.3929,0.38,0.3588,0.3736,0.339,0.3338,0.3864,0.3701,0.354,0.354,0.354,0.354,0.354,0.354,0.3932,0.3897,0.3881,0.3763,0.3724,0.3606,0.3576,0.3501,0.3506,0.342,0.338,0.3457,0.3609,0.362,0.3484,0.3405,0.3174,0.2998,0.3093,0.3442,0.3484,0.3523,0.3358,0.3128,0.3127,0.234,0.2334,0.233]},{"header":{"parameterUnit":"m.s-1","parameterCategory":2,"la1":30.2991,"la2":30.254,"lo1":-89.0895,"lo2":-89.0444,"dy":0.0017,"dx":0.0017,"nx":28,"ny":28,"refTime":"2023-09-24T03:00:00:Z","depth":"0","parameterNumber":3,"parameterNumberName":"V-component_of_CURRENTS"},"data":[0,0,0,0,0,0,0,0,0,0,0,0,0,0,0,0,0,0,0,0,0,0,0,0,0,0,0,0,0,0,0,0,0,0,0,0,0,0,0,0,0,0,0,0,0,0,0,0,0,0,0,0,0,0,0,0,0,0,-0.0716,-0.0717,0,-0.0749,-0.0749,-0.0749,-0.0728,-0.0727,-0.0726,-0.0726,-0.0845,-0.0849,-0.0853,0,0,0,0,0,0,0,0,0,0,0,0,0,-0.0605,-0.0607,-0.0716,-0.0717,-0.0718,-0.0749,-0.0749,-0.0749,-0.0728,-0.0727,-0.0726,-0.0725,-0.0844,-0.0848,-0.0853,0,0,0,0,0,0,0,0,0,0,0,0,0,-0.0643,-0.0607,-0.0716,-0.0714,-0.0714,-0.0749,-0.0749,-0.0749,-0.0728,-0.0727,-0.0726,-0.0725,-0.0843,-0.0848,-0.0854,-0.0907,0,0,-0.0871,-0.0873,0,0,0,0,0,0,0,0,-0.0641,-0.0647,-0.0713,-0.0714,-0.0715,-0.0737,-0.0754,-0.0808,-0.0728,-0.0719,-0.0726,-0.0725,-0.082,-0.0828,-0.0829,-0.0913,-0.0918,-0.0871,-0.0875,-0.0877,-0.0879,0,0,0,0,0,0,0,-0.0638,-0.0645,-0.0725,-0.0714,-0.0715,-0.0701,-0.0705,-0.0763,-0.0773,-0.0719,-0.0719,-0.0729,-0.0821,-0.0824,-0.0832,-0.092,-0.0871,-0.0876,-0.088,-0.0882,-0.1087,-0.1089,0,0,0,0,0,0,-0.0646,-0.0643,-0.0724,-0.0727,-0.0679,-0.0704,-0.0708,-0.0727,-0.077,-0.0776,-0.073,-0.0728,-0.0814,-0.0825,-0.0836,-0.0897,-0.0877,-0.0883,-0.0886,-0.1085,-0.1088,-0.109,0,0,0,0,0,0,-0.0643,-0.0653,-0.0723,-0.0688,-0.0696,-0.0708,-0.0728,-0.0729,-0.0728,-0.0778,-0.0785,-0.0728,-0.0814,-0.0829,-0.0919,-0.0901,-0.0885,-0.089,-0.1083,-0.1086,-0.1089,-0.1022,0,0,0,0,0,0,-0.064,-0.0652,-0.0658,-0.0689,-0.0699,-0.0751,-0.073,-0.073,-0.0738,-0.0735,-0.078,-0.079,-0.0814,-0.0911,-0.0925,-0.0909,-0.0895,-0.108,-0.1084,-0.1088,-0.1022,-0.1022,-0.1023,0,0,0,0,0,-0.0636,-0.0649,-0.0659,-0.0668,-0.0711,-0.0753,-0.0756,-0.0757,-0.0738,-0.0749,-0.0798,-0.0788,-0.0944,-0.0919,-0.0934,-0.0919,-0.1078,-0.1083,-0.1088,-0.1021,-0.1022,-0.1023,0,0,0,0,0,0,-0.0593,-0.0649,-0.066,-0.0687,-0.0723,-0.075,-0.0757,-0.0758,-0.0799,-0.0804,-0.0833,-0.0849,-0.0916,-0.095,-0.0921,-0.0996,-0.1002,-0.101,-0.0947,-0.0948,-0.0949,-0.0865,-0.0899,0,0,0,0,0,-0.0592,-0.0617,-0.0671,-0.0688,-0.0712,-0.0734,-0.0745,-0.076,-0.0803,-0.0815,-0.0849,-0.0899,-0.0949,-0.0975,-0.1034,-0.1087,-0.1057,-0.1087,-0.1088,-0.1088,-0.1035,-0.1019,-0.101,-0.1105,-0.1105,-0.1105,0,0,-0.0576,-0.0611,-0.0622,-0.068,-0.0704,-0.0726,-0.0737,-0.0772,-0.0773,-0.083,-0.0853,-0.0914,-0.0971,-0.1025,-0.1054,-0.1047,-0.1048,-0.1093,-0.1092,-0.1039,-0.1022,-0.1012,-0.1003,-0.1108,-0.1108,-0.1107,0,0,-0.0557,-0.0597,-0.0612,-0.0644,-0.0699,-0.0724,-0.0735,-0.0784,-0.0792,-0.085,-0.0879,-0.0928,-0.1015,-0.103,-0.1051,-0.1098,-0.1062,-0.113,-0.1047,-0.1034,-0.1023,-0.1014,-0.0953,-0.0938,-0.1117,-0.1117,-0.1117,0,-0.0536,-0.0557,-0.0621,-0.0641,-0.0647,-0.0719,-0.0722,-0.0753,-0.082,-0.081,-0.0856,-0.0927,-0.0997,-0.0997,-0.1022,-0.1086,-0.1063,-0.103,-0.1025,-0.1016,-0.1007,-0.0947,-0.0932,-0.1114,-0.1114,-0.1115,-0.1115,0,-0.0521,-0.0539,-0.0552,-0.0595,-0.0619,-0.0643,-0.0699,-0.0721,-0.0748,-0.0762,-0.0788,-0.0884,-0.0896,-0.0949,-0.1004,-0.0975,-0.0972,-0.1031,-0.1,-0.0991,-0.0932,-0.0916,-0.111,-0.1111,-0.1112,-0.1113,0,0,-0.046,-0.053,-0.0525,-0.0518,-0.0593,-0.0599,-0.062,-0.0632,-0.0584,-0.0677,-0.0605,-0.073,-0.0748,-0.0775,-0.0844,-0.0849,-0.0798,-0.0908,-0.0909,-0.0803,-0.0722,-0.0651,-0.0628,-0.0857,-0.0855,-0.0853,-0.0699,0,-0.042,-0.0424,-0.0474,-0.0452,-0.0453,-0.0508,-0.0493,-0.0512,-0.0536,-0.0501,-0.0572,-0.0562,-0.0691,-0.0684,-0.0714,-0.0786,-0.0758,-0.083,-0.0783,-0.078,-0.0682,-0.0608,-0.061,-0.0468,-0.0685,-0.0682,-0.068,0,-0.0366,-0.0375,-0.035,-0.0341,-0.0342,-0.0332,-0.028,-0.0284,-0.0277,-0.0284,-0.0289,-0.0342,-0.036,-0.0477,-0.0522,-0.0564,-0.0615,-0.0671,-0.0668,-0.0598,-0.0679,-0.052,-0.0432,-0.0633,-0.0657,-0.0659,-0.066,0,-0.0242,-0.0269,-0.0231,-0.0234,-0.0253,-0.0215,-0.0209,-0.0195,-0.0144,-0.012,-0.0055,-0.012,-0.0093,-0.0204,-0.0329,-0.0421,-0.0348,-0.0494,-0.0452,-0.0447,-0.0431,-0.0427,-0.0485,-0.0468,-0.0468,-0.0469,-0.0469,0,-0.0156,-0.0117,-0.0161,-0.013,-0.0036,-0.009,0.0029,0.003,0.008,0.0205,0.0086,0.0202,-0.0024,-0.0028,-0.0202,-0.0234,-0.0235,-0.0373,-0.0387,-0.0411,-0.0408,-0.057,-0.069,-0.0463,-0.0464,-0.0466,-0.0467,0,-0.0014,-0.0055,0.0005,0.0008,0.0027,0.0108,0.0184,0.0281,0.0297,0.0466,0.0495,0.0482,0.049,0.0303,0.018,-0.0002,-0.0171,-0.0098,-0.0079,-0.0093,-0.0302,-0.0417,-0.0385,-0.0458,-0.0048,-0.0045,-0.0043,0,0.0051,0.009,0.0138,0.0205,0.0217,0.031,0.0402,0.0411,0.052,0.0673,0.0792,0.085,0.0953,0.081,0.05,0.0294,0.0049,0.0137,-0.0058,-0.0241,-0.0383,-0.0478,-0.0552,-0.0015,-0.0012,-0.001,-0.0009,0,0.0178,0.0201,0.0249,0.0389,0.0492,0.0612,0.0729,0.0845,0.0914,0.1077,0.1311,0.1409,0.1293,0.1107,0.0802,0.0588,-0.0001,0.0175,-0.0041,-0.0341,-0.0419,-0.0521,-0.0168,0.0009,0.0008,0.0006,0.0005,0.0004,0.0283,0.0351,0.0421,0.0573,0.0708,0.0898,0.1033,0.1188,0.1411,0.1669,0.1719,0.1915,0.1558,0.1149,0.0855,0.0243,0.0209,-0.0014,-0.0124,-0.0191,-0.0302,0.0142,0.0304,0.0304,0.0304,0.0304,0.0303,0,0.0369,0.0447,0.0597,0.0769,0.0966,0.1001,0.1243,0.14,0.1708,0.197,0.219,0.2135,0.1709,0.1169,0.0381,-0.0028,-0.0246,-0.0272,-0.0479,-0.0535,-0.0161,-0.0208,-0.0117,-0.0117,-0.0117,-0.0117,-0.0117,-0.0116,0.0413,0.0546,0.0629,0.0948,0.1099,0.1348,0.1501,0.1763,0.1978,0.233,0.2462,0.2527,0.2094,0.0737,-0.0214,-0.0447,-0.0761,-0.0772,-0.0916,-0.0773,-0.0762,-0.0751,-0.0827,-0.0867,-0.0868,-0.1286,-0.1291,-0.1294]}],[{"header":{"parameterUnit":"m.s-1","parameterCategory":2,"la1":30.2991,"la2":30.254,"lo1":-89.0895,"lo2":-89.0444,"dy":0.0017,"dx":0.0017,"nx":28,"ny":28,"refTime":"2023-09-24T03:00:00:Z","depth":"2","parameterNumber":2,"parameterNumberName":"U-component_of_CURRENTS"},"data":[0,0,0,0,0,0,0,0,0,0,0,0,0,0,0,0,0,0,0,0,0,0,0,0,0,0,0,0,0,0,0,0,0,0,0,0,0,0,0,0,0,0,0,0,0,0,0,0,0,0,0,0,0,0,0,0,0,0,0.2558,0.2559,0,0.2589,0.259,0.2591,0.2623,0.2623,0.2623,0.2623,0.2614,0.2614,0.2613,0,0,0,0,0,0,0,0,0,0,0,0,0,0.255,0.255,0.2558,0.2559,0.2559,0.2589,0.259,0.2591,0.2623,0.2623,0.2623,0.2623,0.2614,0.2614,0.2613,0,0,0,0,0,0,0,0,0,0,0,0,0,0.2568,0.255,0.2558,0.2576,0.2577,0.2589,0.259,0.2591,0.2623,0.2623,0.2623,0.2623,0.2614,0.2614,0.2613,0.2606,0,0,0.2612,0.2612,0,0,0,0,0,0,0,0,0.2567,0.2569,0.2573,0.2574,0.2576,0.2599,0.2584,0.2593,0.2623,0.2609,0.2623,0.2623,0.2603,0.2604,0.2615,0.2606,0.2606,0.2612,0.2611,0.2611,0.2611,0,0,0,0,0,0,0,0.2566,0.2568,0.2574,0.2573,0.2575,0.259,0.2592,0.2586,0.2607,0.261,0.2612,0.261,0.2604,0.2615,0.2614,0.2606,0.2612,0.2611,0.2611,0.2611,0.27,0.2703,0,0,0,0,0,0,0.2553,0.2566,0.2573,0.2575,0.2568,0.2589,0.2593,0.2595,0.2608,0.2609,0.261,0.2611,0.2616,0.2615,0.2614,0.2755,0.2611,0.2611,0.261,0.2698,0.2701,0.2704,0,0,0,0,0,0,0.2553,0.2554,0.2572,0.2568,0.2571,0.2589,0.2591,0.2595,0.2635,0.2607,0.2608,0.2648,0.2616,0.2615,0.2621,0.2749,0.261,0.261,0.2694,0.2699,0.2702,0.294,0,0,0,0,0,0,0.2553,0.2554,0.2555,0.2568,0.2571,0.2628,0.2591,0.2595,0.263,0.2633,0.2639,0.2637,0.2616,0.2622,0.262,0.2745,0.261,0.2691,0.2696,0.2701,0.2929,0.2952,0.2972,0,0,0,0,0,0.2553,0.2534,0.2555,0.2556,0.2571,0.263,0.2637,0.265,0.2632,0.268,0.265,0.2639,0.2655,0.2622,0.262,0.2749,0.2689,0.2695,0.2701,0.292,0.2948,0.2971,0,0,0,0,0,0,0.252,0.2536,0.2559,0.2546,0.2615,0.2636,0.264,0.2669,0.2686,0.267,0.2646,0.2643,0.271,0.267,0.2634,0.2784,0.2682,0.2688,0.2849,0.2875,0.2896,0.2863,0.2609,0,0,0,0,0,0.2517,0.2521,0.2568,0.2572,0.2589,0.2628,0.2648,0.2681,0.269,0.27,0.2714,0.2709,0.2731,0.275,0.2752,0.2813,0.2769,0.2898,0.292,0.2938,0.2907,0.295,0.2973,0.2724,0.2724,0.2724,0,0,0.2502,0.2515,0.2515,0.2569,0.2594,0.2649,0.2642,0.2688,0.2761,0.2691,0.277,0.2778,0.2756,0.284,0.287,0.2827,0.2995,0.2946,0.2963,0.292,0.2958,0.2983,0.3004,0.2728,0.2727,0.2726,0,0,0.2503,0.2491,0.2518,0.2589,0.2656,0.2663,0.2691,0.2759,0.2815,0.288,0.2869,0.2919,0.2952,0.2987,0.2994,0.3118,0.3099,0.3168,0.3267,0.3313,0.3334,0.3351,0.3369,0.3386,0.3191,0.3191,0.3191,0,0.2498,0.253,0.2544,0.2623,0.2655,0.2677,0.2741,0.2805,0.2888,0.2928,0.2924,0.3013,0.3012,0.3118,0.3183,0.3173,0.3185,0.3186,0.3344,0.336,0.3374,0.3387,0.3402,0.3203,0.3202,0.3201,0.3199,0,0.2565,0.2596,0.261,0.2697,0.2748,0.2795,0.2878,0.2945,0.2976,0.3044,0.3171,0.3194,0.3251,0.3306,0.3279,0.3428,0.3402,0.3366,0.3286,0.3414,0.3419,0.3431,0.3221,0.3216,0.3213,0.321,0,0,0.2543,0.2632,0.2657,0.2718,0.2787,0.2852,0.2922,0.3009,0.3084,0.3196,0.3313,0.3399,0.3449,0.3458,0.3507,0.3554,0.3695,0.3528,0.3525,0.3557,0.3805,0.3703,0.3705,0.3721,0.3724,0.3726,0.3784,0,0.2596,0.2709,0.2751,0.2866,0.2895,0.2949,0.3007,0.3106,0.319,0.332,0.3396,0.3515,0.3512,0.3592,0.3654,0.368,0.3732,0.368,0.366,0.3658,0.3564,0.3717,0.3427,0.3447,0.3795,0.3797,0.3798,0,0.2654,0.2713,0.2813,0.2906,0.2933,0.3037,0.313,0.3211,0.3348,0.3418,0.3556,0.3635,0.3774,0.3738,0.3848,0.3836,0.3833,0.3825,0.3828,0.3639,0.3578,0.3365,0.3455,0.3817,0.3816,0.3814,0.3813,0,0.2608,0.2757,0.2819,0.2878,0.2985,0.3083,0.3142,0.3256,0.3316,0.3533,0.3591,0.3772,0.3866,0.3916,0.3949,0.3924,0.4023,0.3975,0.3866,0.3858,0.3546,0.3506,0.4012,0.4012,0.4012,0.4011,0.4011,0,0.262,0.2723,0.2846,0.2917,0.2992,0.3114,0.3244,0.3304,0.3443,0.3508,0.3684,0.378,0.3915,0.4002,0.4006,0.3995,0.4079,0.3891,0.3877,0.3624,0.3592,0.3833,0.3811,0.4014,0.4013,0.4013,0.4012,0,0.2615,0.2695,0.2779,0.2924,0.2967,0.3063,0.3237,0.3322,0.3454,0.3559,0.3623,0.3807,0.3919,0.4014,0.4092,0.4039,0.4044,0.4002,0.3692,0.364,0.3827,0.3818,0.3886,0.3883,0.3881,0.3879,0.3877,0,0.2631,0.2637,0.2732,0.2785,0.2903,0.3059,0.3096,0.3264,0.3355,0.3548,0.357,0.3759,0.383,0.3936,0.392,0.3921,0.3999,0.362,0.3491,0.384,0.382,0.3814,0.3808,0.3188,0.3181,0.3175,0.317,0,0.2608,0.2625,0.2703,0.2719,0.2835,0.2911,0.3051,0.3088,0.3261,0.3338,0.3444,0.3533,0.3664,0.3568,0.3607,0.3558,0.3608,0.3496,0.3969,0.3265,0.3187,0.3166,0.3181,0.3118,0.3123,0.3127,0.313,0.3132,0.2577,0.259,0.2616,0.2681,0.2742,0.277,0.2802,0.2932,0.2979,0.3043,0.3207,0.3223,0.3293,0.3202,0.3117,0.3074,0.3297,0.3137,0.3153,0.3176,0.3085,0.3007,0.2886,0.289,0.2893,0.2896,0.2899,0,0.2499,0.2557,0.2561,0.2636,0.2633,0.2695,0.2729,0.2711,0.2707,0.2788,0.2837,0.2636,0.2582,0.2674,0.2518,0.2502,0.246,0.2403,0.2327,0.2382,0.2431,0.2299,0.1893,0.189,0.1887,0.1884,0,0,0.2492,0.2463,0.245,0.2463,0.2528,0.248,0.2445,0.2379,0.2389,0.2306,0.2297,0.2458,0.2586,0.22,0.2152,0.1999,0.2167,0.1919,0.2733,0.2699,0.2743,0.2871,0.2733,0,0,0,0,0]},{"header":{"parameterUnit":"m.s-1","parameterCategory":2,"la1":30.2991,"la2":30.254,"lo1":-89.0895,"lo2":-89.0444,"dy":0.0017,"dx":0.0017,"nx":28,"ny":28,"refTime":"2023-09-24T03:00:00:Z","depth":"2","parameterNumber":3,"parameterNumberName":"V-component_of_CURRENTS"},"data":[0,0,0,0,0,0,0,0,0,0,0,0,0,0,0,0,0,0,0,0,0,0,0,0,0,0,0,0,0,0,0,0,0,0,0,0,0,0,0,0,0,0,0,0,0,0,0,0,0,0,0,0,0,0,0,0,0,0,0.0342,0.0341,0,0.0296,0.0295,0.0294,0.0245,0.0244,0.0244,0.0243,0.0243,0.0243,0.0244,0,0,0,0,0,0,0,0,0,0,0,0,0,0.0339,0.0339,0.0342,0.0341,0.0341,0.0296,0.0295,0.0294,0.0245,0.0244,0.0244,0.0243,0.0243,0.0243,0.0244,0,0,0,0,0,0,0,0,0,0,0,0,0,0.0319,0.0339,0.0342,0.0313,0.031,0.0296,0.0295,0.0294,0.0245,0.0244,0.0244,0.0243,0.0243,0.0243,0.0244,0.0263,0,0,0.0246,0.0246,0,0,0,0,0,0,0,0,0.032,0.0319,0.0317,0.0315,0.0311,0.0277,0.0294,0.0287,0.0245,0.0267,0.0243,0.0242,0.0261,0.026,0.0249,0.0263,0.0263,0.0246,0.0247,0.0247,0.0247,0,0,0,0,0,0,0,0.0322,0.032,0.0321,0.0317,0.0313,0.0286,0.0282,0.0292,0.0268,0.0265,0.0262,0.0261,0.0259,0.0248,0.0249,0.0263,0.0246,0.0247,0.0247,0.0247,0.0303,0.0304,0,0,0,0,0,0,0.0336,0.0322,0.0323,0.032,0.0317,0.0287,0.0283,0.0287,0.0266,0.0263,0.0262,0.0259,0.0248,0.0248,0.0249,0.0286,0.0247,0.0247,0.0248,0.0302,0.0303,0.0304,0,0,0,0,0,0,0.0336,0.0337,0.0324,0.0321,0.0318,0.0288,0.0293,0.0287,0.0274,0.0264,0.026,0.0256,0.0247,0.0248,0.027,0.0285,0.0248,0.0248,0.03,0.0302,0.0304,0.0351,0,0,0,0,0,0,0.0336,0.0337,0.0346,0.0323,0.0319,0.0323,0.0294,0.0286,0.0276,0.0272,0.0258,0.0257,0.0246,0.0269,0.0271,0.0285,0.0249,0.0299,0.0301,0.0303,0.0348,0.0354,0.0359,0,0,0,0,0,0.0336,0.037,0.0347,0.0347,0.0333,0.0324,0.0319,0.0293,0.0277,0.0277,0.0276,0.0257,0.0283,0.0271,0.0273,0.0287,0.0298,0.0301,0.0303,0.0345,0.0352,0.0358,0,0,0,0,0,0,0.0363,0.0367,0.0342,0.037,0.0344,0.0316,0.0331,0.0298,0.0294,0.0296,0.0277,0.0277,0.0303,0.0292,0.028,0.0309,0.0285,0.0288,0.0317,0.0323,0.0329,0.0368,0.0249,0,0,0,0,0,0.0375,0.0404,0.0378,0.0393,0.0396,0.0358,0.0352,0.0325,0.0317,0.0312,0.0302,0.0301,0.0315,0.0316,0.0325,0.0344,0.0307,0.0352,0.0358,0.0362,0.0396,0.0321,0.0322,0.0312,0.0312,0.0312,0,0,0.0388,0.0393,0.0406,0.0401,0.039,0.041,0.0353,0.0352,0.0367,0.0318,0.0348,0.0327,0.0327,0.0349,0.0358,0.034,0.0346,0.0366,0.0369,0.0401,0.0324,0.0324,0.0325,0.0314,0.0313,0.0313,0,0,0.0436,0.0436,0.0477,0.0466,0.0453,0.0447,0.0448,0.0419,0.0411,0.0428,0.0399,0.0401,0.0407,0.041,0.0415,0.0462,0.0383,0.0437,0.049,0.0416,0.0416,0.0415,0.0365,0.036,0.0431,0.0431,0.0431,0,0.0444,0.0493,0.048,0.0506,0.0515,0.0473,0.0504,0.0501,0.0474,0.0478,0.0455,0.0449,0.0456,0.0474,0.0494,0.0479,0.0408,0.0462,0.0421,0.042,0.0419,0.0367,0.0361,0.0434,0.0434,0.0433,0.0433,0,0.0517,0.0548,0.0576,0.061,0.0611,0.0635,0.0626,0.0637,0.0627,0.06,0.06,0.0577,0.0558,0.0559,0.0554,0.0539,0.0482,0.0437,0.04,0.0422,0.0367,0.0359,0.0438,0.0437,0.0436,0.0435,0,0,0.054,0.0621,0.0619,0.065,0.0668,0.0675,0.0735,0.0759,0.0767,0.0742,0.0742,0.0763,0.0681,0.0683,0.0627,0.059,0.0536,0.0509,0.0503,0.0454,0.0355,0.0319,0.0306,0.0438,0.0437,0.0437,0.0317,0,0.0595,0.0694,0.0704,0.0774,0.083,0.0819,0.0871,0.0873,0.085,0.0839,0.0808,0.0784,0.0739,0.0697,0.065,0.0575,0.0517,0.0574,0.0348,0.0344,0.0303,0.0297,0.0319,0.0214,0.0309,0.0308,0.0307,0,0.0644,0.0718,0.0814,0.0882,0.0898,0.0915,0.0958,0.0986,0.0972,0.0947,0.0888,0.0819,0.0792,0.0726,0.0591,0.0603,0.0491,0.0429,0.042,0.0374,0.0294,0.0209,0.0195,0.0294,0.0295,0.0296,0.0297,0,0.068,0.0772,0.0866,0.0884,0.0964,0.0982,0.1011,0.1006,0.1036,0.0976,0.0975,0.0864,0.0832,0.0681,0.0558,0.0541,0.0396,0.0346,0.0209,0.0205,0.0185,0.0181,0.023,0.023,0.0231,0.0231,0.0231,0,0.0736,0.0791,0.088,0.0921,0.1012,0.1011,0.105,0.1067,0.1062,0.1104,0.0996,0.0997,0.0811,0.0705,0.0558,0.0372,0.0372,0.0235,0.0172,0.0202,0.0201,0.0245,0.0248,0.0226,0.0227,0.0228,0.0229,0,0.0742,0.0813,0.0912,0.1002,0.1033,0.1071,0.1122,0.1148,0.1132,0.1179,0.1177,0.11,0.0964,0.0768,0.0548,0.0393,0.0214,0.0134,0.0202,0.0149,0.007,0.0077,-0.0031,-0.0033,-0.0035,-0.0037,-0.0038,0,0.0768,0.0829,0.0963,0.1018,0.1047,0.1107,0.1174,0.1195,0.1229,0.1263,0.1312,0.1194,0.1132,0.0794,0.0502,0.0202,0.0179,0.0014,0.0008,0.0094,0.0043,0.0053,0.0063,-0.0006,-0.0007,-0.0008,-0.0008,0,0.0806,0.0839,0.0917,0.1057,0.1126,0.123,0.1304,0.1367,0.1415,0.146,0.1508,0.1458,0.1146,0.0848,0.0426,0.023,0.0064,-0.0013,0.0035,0.0064,0.0109,0.0062,0.0072,-0.0015,-0.0015,-0.0014,-0.0014,-0.0013,0.0816,0.0865,0.097,0.1081,0.119,0.1331,0.1415,0.1505,0.1614,0.1683,0.1639,0.1558,0.123,0.0682,0.0352,0.0001,0.0017,-0.0114,-0.0108,-0.0102,-0.0071,-0.0031,-0.0175,-0.0175,-0.0175,-0.0175,-0.0175,0,0.0849,0.0898,0.0998,0.1145,0.126,0.1328,0.1505,0.1588,0.1735,0.1764,0.1763,0.1426,0.1088,0.0721,0.0202,-0.011,-0.012,-0.0214,-0.0147,-0.0138,-0.0131,-0.0098,-0.0212,-0.0213,-0.0213,-0.0214,0,0,0.0864,0.0962,0.1012,0.1186,0.1282,0.1459,0.1573,0.1708,0.1772,0.1794,0.1725,0.1595,0.1175,0.0792,0.0377,0.0089,0.0046,0.0023,0.0083,0.0219,0.023,-0.0049,0.0013,0,0,0,0,0]}],[{"header":{"parameterUnit":"m.s-1","parameterCategory":2,"la1":30.2991,"la2":30.254,"lo1":-89.0895,"lo2":-89.0444,"dy":0.0017,"dx":0.0017,"nx":28,"ny":28,"refTime":"2023-09-24T03:00:00:Z","depth":"4","parameterNumber":2,"parameterNumberName":"U-component_of_CURRENTS"},"data":[0,0,0,0,0,0,0,0,0,0,0,0,0,0,0,0,0,0,0,0,0,0,0,0,0,0,0,0,0,0,0,0,0,0,0,0,0,0,0,0,0,0,0,0,0,0,0,0,0,0,0,0,0,0,0,0,0,0,0.1263,0.1264,0,0.1318,0.1319,0.132,0.1382,0.1383,0.1384,0.1384,0.1434,0.1435,0.1435,0,0,0,0,0,0,0,0,0,0,0,0,0,0.1184,0.1185,0.1263,0.1264,0.1264,0.1318,0.1319,0.132,0.1382,0.1383,0.1384,0.1385,0.1434,0.1435,0.1435,0,0,0,0,0,0,0,0,0,0,0,0,0,0.1227,0.1186,0.1263,0.1301,0.1305,0.1318,0.1319,0.132,0.1381,0.1383,0.1384,0.1385,0.1434,0.1435,0.1435,0.1414,0,0,0.1438,0.1438,0,0,0,0,0,0,0,0,0.1225,0.123,0.1295,0.1299,0.1303,0.1344,0.131,0.1351,0.1381,0.1353,0.1384,0.1386,0.1402,0.1406,0.1414,0.1417,0.1419,0.1438,0.1438,0.1439,0.1439,0,0,0,0,0,0,0,0.1222,0.1228,0.1285,0.1295,0.13,0.1306,0.1314,0.1318,0.137,0.1356,0.136,0.1365,0.1405,0.1413,0.1416,0.142,0.1438,0.1439,0.1439,0.1439,0.1524,0.1526,0,0,0,0,0,0,0.1214,0.1225,0.1284,0.1287,0.1266,0.1307,0.1316,0.133,0.137,0.1378,0.1364,0.1368,0.1411,0.1415,0.1418,0.1491,0.1439,0.1439,0.144,0.1522,0.1525,0.1526,0,0,0,0,0,0,0.1212,0.1219,0.1281,0.1256,0.1265,0.1307,0.1322,0.133,0.1373,0.1376,0.1384,0.1402,0.1412,0.1417,0.1457,0.149,0.144,0.144,0.152,0.1523,0.1526,0.1576,0,0,0,0,0,0,0.121,0.1218,0.1239,0.1256,0.1266,0.1294,0.1321,0.1331,0.1371,0.1378,0.141,0.1415,0.1414,0.1456,0.1458,0.149,0.1441,0.1518,0.1522,0.1525,0.1572,0.158,0.1587,0,0,0,0,0,0.1207,0.1215,0.124,0.1248,0.1289,0.1294,0.1299,0.1334,0.1372,0.138,0.1424,0.1416,0.1479,0.1458,0.146,0.1493,0.1516,0.1521,0.1524,0.1569,0.1579,0.1587,0,0,0,0,0,0,0.1197,0.1222,0.125,0.127,0.1288,0.1304,0.1323,0.1351,0.1392,0.1419,0.1432,0.1438,0.1492,0.1484,0.146,0.153,0.1499,0.1503,0.1532,0.1541,0.1548,0.1552,0.1442,0,0,0,0,0,0.1204,0.1215,0.1241,0.1259,0.1274,0.131,0.1326,0.1352,0.1382,0.1405,0.1425,0.1462,0.1502,0.1516,0.1539,0.1564,0.1583,0.159,0.1597,0.1604,0.161,0.1677,0.1691,0.154,0.154,0.154,0,0,0.1203,0.1221,0.1229,0.1258,0.1284,0.1315,0.1324,0.1355,0.1396,0.1401,0.1465,0.1489,0.1519,0.1562,0.1583,0.1561,0.1658,0.1609,0.1614,0.1616,0.1683,0.1698,0.1711,0.1542,0.1542,0.1541,0,0,0.1199,0.1231,0.1244,0.1264,0.1304,0.1329,0.1346,0.1381,0.1415,0.1471,0.15,0.1544,0.1588,0.1612,0.1635,0.1694,0.1702,0.1705,0.1736,0.1802,0.1815,0.1827,0.1873,0.1888,0.17,0.17,0.17,0,0.1203,0.1228,0.1246,0.1272,0.1301,0.1344,0.1379,0.1416,0.146,0.1491,0.1503,0.1604,0.1618,0.1688,0.1711,0.1711,0.1746,0.1698,0.1812,0.1824,0.1835,0.1879,0.1896,0.1703,0.1703,0.1703,0.1702,0,0.1206,0.1244,0.1253,0.131,0.1343,0.137,0.1428,0.1466,0.1524,0.1562,0.1644,0.1672,0.1727,0.1743,0.1749,0.1831,0.1831,0.182,0.1787,0.1853,0.1896,0.1912,0.1708,0.1706,0.1706,0.1705,0,0,0.1175,0.124,0.1251,0.1286,0.1368,0.1387,0.1469,0.1534,0.1602,0.165,0.1738,0.1791,0.1807,0.1833,0.1842,0.1892,0.1995,0.189,0.1892,0.1932,0.2143,0.2002,0.2005,0.2013,0.2016,0.2018,0.2142,0,0.1179,0.1217,0.1265,0.1332,0.1364,0.1436,0.1513,0.1587,0.1659,0.1748,0.1799,0.1897,0.1844,0.1901,0.193,0.1993,0.204,0.1962,0.2076,0.2079,0.1943,0.202,0.2028,0.2154,0.2157,0.216,0.2162,0,0.1177,0.1203,0.1256,0.135,0.1377,0.1438,0.1562,0.1637,0.177,0.1836,0.1913,0.1975,0.2056,0.2026,0.212,0.2078,0.2113,0.2149,0.2154,0.2014,0.1967,0.2074,0.2191,0.2188,0.2186,0.2184,0.2182,0,0.113,0.1204,0.1242,0.127,0.1385,0.1442,0.1527,0.1663,0.175,0.1916,0.2001,0.2089,0.2176,0.222,0.2249,0.222,0.2365,0.2332,0.2234,0.2225,0.229,0.2277,0.2421,0.2421,0.2421,0.2421,0.242,0,0.1104,0.1138,0.1224,0.1243,0.1324,0.143,0.1548,0.1646,0.1821,0.1928,0.2042,0.213,0.2239,0.2315,0.2315,0.2305,0.2409,0.2256,0.2253,0.2309,0.2296,0.2302,0.2286,0.2425,0.2424,0.2423,0.2422,0,0.1051,0.1098,0.1149,0.1261,0.1304,0.1373,0.156,0.1641,0.1818,0.1967,0.2043,0.2217,0.2315,0.2379,0.2491,0.2388,0.2411,0.2387,0.2451,0.2448,0.2214,0.22,0.2299,0.2295,0.2292,0.2289,0.2287,0,0.1019,0.1038,0.1148,0.1179,0.1234,0.1348,0.1432,0.1627,0.1715,0.1977,0.2032,0.2231,0.2309,0.2336,0.2412,0.2432,0.2394,0.2383,0.2279,0.2217,0.2206,0.2196,0.2187,0.2282,0.2281,0.228,0.228,0,0.0961,0.1014,0.1055,0.1122,0.1194,0.1281,0.1411,0.1476,0.1698,0.1859,0.1994,0.2084,0.2199,0.2266,0.2311,0.2304,0.2373,0.2349,0.2354,0.2256,0.2197,0.2187,0.2182,0.2268,0.227,0.2271,0.2272,0,0.0925,0.0937,0.0994,0.1056,0.1135,0.1195,0.1277,0.1388,0.1517,0.1791,0.1828,0.2015,0.2183,0.2203,0.2227,0.223,0.2191,0.2092,0.211,0.2124,0.2005,0.19,0.1894,0,0,0,0,0,0.0869,0.0868,0.0918,0.0973,0.1054,0.1112,0.1252,0.1341,0.1538,0.1586,0.1714,0.1814,0.1916,0.2013,0.1983,0.2143,0.2186,0.2095,0.2078,0.2206,0.2219,0.2092,0,0,0,0,0,0,0.0822,0.0843,0.0881,0.0901,0.0934,0.1017,0.1109,0.1241,0.1278,0.1479,0.1545,0.1692,0.1814,0.1919,0.1947,0.1973,0.192,0.2211,0.2205,0.2199,0.2211,0.2221,0.2095,0,0,0,0,0]},{"header":{"parameterUnit":"m.s-1","parameterCategory":2,"la1":30.2991,"la2":30.254,"lo1":-89.0895,"lo2":-89.0444,"dy":0.0017,"dx":0.0017,"nx":28,"ny":28,"refTime":"2023-09-24T03:00:00:Z","depth":"4","parameterNumber":3,"parameterNumberName":"V-component_of_CURRENTS"},"data":[0,0,0,0,0,0,0,0,0,0,0,0,0,0,0,0,0,0,0,0,0,0,0,0,0,0,0,0,0,0,0,0,0,0,0,0,0,0,0,0,0,0,0,0,0,0,0,0,0,0,0,0,0,0,0,0,0,0,0.0403,0.0403,0,0.0389,0.0389,0.0389,0.0378,0.0378,0.0378,0.0378,0.0372,0.0372,0.0372,0,0,0,0,0,0,0,0,0,0,0,0,0,0.0391,0.0392,0.0403,0.0403,0.0403,0.0389,0.0389,0.0389,0.0378,0.0378,0.0378,0.0378,0.0372,0.0372,0.0372,0,0,0,0,0,0,0,0,0,0,0,0,0,0.0387,0.0392,0.0403,0.0397,0.0397,0.0389,0.0389,0.0389,0.0378,0.0378,0.0378,0.0378,0.0372,0.0372,0.0372,0.0367,0,0,0.0371,0.037,0,0,0,0,0,0,0,0,0.0387,0.0387,0.0398,0.0398,0.0397,0.0387,0.0383,0.0382,0.0378,0.0383,0.0378,0.0378,0.0379,0.0378,0.0372,0.0367,0.0366,0.0371,0.037,0.037,0.037,0,0,0,0,0,0,0,0.0388,0.0388,0.0395,0.0398,0.0398,0.0386,0.0386,0.0382,0.0379,0.0382,0.0382,0.0384,0.0379,0.0373,0.0372,0.0366,0.0371,0.037,0.037,0.037,0.0381,0.0382,0,0,0,0,0,0,0.0395,0.0388,0.0396,0.0395,0.0395,0.0387,0.0386,0.0389,0.0379,0.0378,0.0384,0.0384,0.0373,0.0373,0.0372,0.0401,0.037,0.037,0.037,0.0381,0.0381,0.0382,0,0,0,0,0,0,0.0395,0.0396,0.0396,0.0393,0.0392,0.0387,0.039,0.0388,0.0397,0.038,0.0379,0.0396,0.0373,0.0373,0.0383,0.0399,0.037,0.0369,0.038,0.0381,0.0382,0.0436,0,0,0,0,0,0,0.0394,0.0396,0.0402,0.0393,0.0393,0.0409,0.039,0.0388,0.0398,0.0398,0.039,0.0389,0.0373,0.0384,0.0383,0.0398,0.0369,0.0379,0.038,0.0381,0.0434,0.0439,0.0443,0,0,0,0,0,0.0394,0.0405,0.0402,0.0404,0.0401,0.041,0.0409,0.0404,0.0399,0.041,0.0402,0.039,0.0389,0.0384,0.0383,0.0399,0.0379,0.038,0.0381,0.0432,0.0438,0.0443,0,0,0,0,0,0,0.0395,0.0405,0.0402,0.0412,0.0419,0.041,0.042,0.0415,0.0416,0.0417,0.0399,0.0398,0.0412,0.0397,0.0393,0.0403,0.0381,0.0382,0.0419,0.0425,0.0429,0.0438,0.0369,0,0,0,0,0,0.04,0.0419,0.0418,0.043,0.0436,0.0431,0.0434,0.0431,0.0429,0.043,0.0423,0.0415,0.0412,0.0414,0.0408,0.0417,0.0375,0.0424,0.0429,0.0433,0.0439,0.0384,0.0384,0.0386,0.0386,0.0386,0,0,0.0402,0.0413,0.042,0.0433,0.0437,0.0453,0.0433,0.0447,0.046,0.043,0.0448,0.0434,0.0419,0.0428,0.0432,0.042,0.0409,0.0435,0.0439,0.0441,0.0385,0.0384,0.0384,0.0386,0.0386,0.0386,0,0,0.0428,0.0429,0.0457,0.0466,0.0482,0.0477,0.0487,0.0487,0.0489,0.0503,0.0481,0.0476,0.0479,0.0463,0.0458,0.0484,0.0436,0.0486,0.0517,0.0464,0.0463,0.0462,0.0399,0.0392,0.0487,0.0487,0.0488,0,0.0431,0.0463,0.0465,0.0494,0.0508,0.0494,0.0523,0.0521,0.0522,0.0529,0.052,0.0507,0.0494,0.0494,0.0505,0.0495,0.0453,0.0499,0.0469,0.0467,0.0465,0.0401,0.0392,0.049,0.049,0.049,0.0489,0,0.0478,0.0502,0.0521,0.0554,0.0569,0.059,0.059,0.06,0.06,0.0593,0.0598,0.0568,0.0557,0.0553,0.0542,0.0526,0.0496,0.0481,0.0455,0.0468,0.04,0.0389,0.0494,0.0493,0.0492,0.0492,0,0,0.0481,0.0544,0.0549,0.0582,0.0602,0.0622,0.0645,0.0663,0.068,0.0665,0.0676,0.0661,0.0632,0.0623,0.0593,0.0553,0.0499,0.0519,0.0515,0.0456,0.0371,0.0332,0.0317,0.0478,0.0476,0.0476,0.0325,0,0.0517,0.059,0.0607,0.0666,0.0701,0.0702,0.073,0.0741,0.0737,0.0739,0.0698,0.0698,0.066,0.0657,0.0607,0.053,0.0477,0.0541,0.0367,0.0362,0.0326,0.0306,0.0472,0.0318,0.0315,0.0313,0.0312,0,0.055,0.06,0.0672,0.0738,0.0754,0.0789,0.0829,0.0849,0.084,0.0834,0.0805,0.0768,0.0711,0.0678,0.0529,0.0571,0.0479,0.0411,0.0403,0.0343,0.0305,0.0303,0.0293,0.0295,0.0296,0.0297,0.0298,0,0.0558,0.0638,0.0704,0.0725,0.0794,0.0836,0.0871,0.0886,0.0907,0.0891,0.0885,0.081,0.0762,0.0646,0.0495,0.0514,0.0315,0.0318,0.019,0.0185,0.0241,0.0244,0.0208,0.0209,0.0209,0.0209,0.021,0,0.058,0.0629,0.0724,0.0759,0.0842,0.0879,0.0948,0.0962,0.0978,0.0987,0.0932,0.0896,0.0753,0.0622,0.0495,0.0295,0.0301,0.0186,0.0143,0.0267,0.0274,0.0233,0.0238,0.0204,0.0205,0.0206,0.0207,0,0.057,0.0628,0.0708,0.081,0.085,0.0909,0.1006,0.1043,0.105,0.105,0.1047,0.0947,0.0776,0.0606,0.0397,0.0285,0.0113,0.0041,0.0167,0.0135,0.0021,0.0031,-0.0105,-0.0108,-0.011,-0.0112,-0.0113,0,0.0573,0.0618,0.0742,0.0794,0.085,0.0947,0.1011,0.1072,0.1098,0.1067,0.1053,0.0915,0.0818,0.0482,0.0316,0.005,0.002,-0.0072,-0.0002,0.0016,-0.0012,0.0002,0.0014,-0.0117,-0.0117,-0.0118,-0.0118,0,0.0578,0.0624,0.0688,0.0799,0.0888,0.0982,0.1073,0.1098,0.1136,0.1138,0.1039,0.0887,0.068,0.0459,0.0238,0.0058,-0.0007,-0.0095,-0.0091,-0.0025,0.0,-0.0022,-0.0008,-0.0126,-0.0125,-0.0124,-0.0124,0,0.0578,0.0615,0.0704,0.0799,0.09,0.0988,0.1045,0.1077,0.1112,0.108,0.1037,0.0844,0.0741,0.0458,0.0259,0.0071,0.0045,0.0005,0.0004,0.0011,0.0098,0.0151,0.0024,0,0,0,0,0,0.0583,0.0629,0.0703,0.0809,0.09,0.0971,0.1069,0.1112,0.1145,0.1074,0.1062,0.0873,0.0582,0.0464,0.0267,0.0224,0.0013,-0.0012,-0.0032,-0.0169,-0.016,-0.008,0,0,0,0,0,0,0.0587,0.0658,0.0694,0.0798,0.0865,0.0978,0.1045,0.1071,0.1037,0.1031,0.0879,0.0817,0.0536,0.0681,0.0256,0.0202,0.0162,-0.014,-0.0144,-0.0174,-0.0166,-0.0159,-0.0073,0,0,0,0,0]}]]